Powrót do katalogu

NOAA 16 DEB

AktywnySSO
NORAD 41665·DEBRIS·🇺🇸 United States

Wystrzelony Sep 21, 2000 z Vandenberg Space Force Base

Loading…

Następne Przeloty (najbliższe 24 godziny)

TLE

Starzejące sięSource: Space-Track

Epoka: Sep 10, 2026, 04:44 UTC

1 41665U 00055PE  26253.19739955  .00000517  00000-0  31653-3 0  9992
2 41665  98.6634 238.7402 0039493 317.9509  41.8633 14.09731296533163

Śledź NOAA 16 DEB w czasie rzeczywistym z AllMySat

Download on the App Store